Location: Unspecified
(0.0000°N, 0.0000°E)
Time: 15:55:42
(UTC+00:00)

TATIANA 2 - Visible Passes

Search period start: 28 May 2023 00:00
Search period end: 07 June 2023 00:00
Orbit: 812 x 816 km, 98.6° (Epoch: 28 May)

Date Brightness Start Highest point End Pass type
(mag) Time Alt. Az. Time Alt. Az. Time Alt. Az.
28 May ? 02:45:24 10° NNE 02:45:47 12° NNE 02:45:47 12° NNE visible
29 May ? 04:03:59 10° NNW 04:04:23 12° NNW 04:04:23 12° NNW visible
30 May ? 03:40:38 10° N 03:41:43 16° NNW 03:41:43 16° NNW visible
31 May ? 03:17:53 10° N 03:19:02 17° N 03:19:02 17° N visible
01 Jun ? 02:55:35 10° NNE 02:56:23 15° NNE 02:56:23 15° NNE visible
03 Jun ? 03:51:22 10° NNW 03:52:16 14° NNW 03:52:16 14° NNW visible
04 Jun ? 03:28:22 10° N 03:29:36 17° N 03:29:36 17° N visible
05 Jun ? 03:05:51 10° NNE 03:06:55 16° NNE 03:06:55 16° NNE visible
06 Jun ? 02:43:47 10° NNE 02:44:14 12° NNE 02:44:14 12° NNE visible
